Weather History for Skagway, AK

Change the Weather History Date:

Friday, August 23, 2013

  Actual Average Record
Temperature  
Mean Temperature 57 °F -  
Max Temperature 60 °F 59 °F 80 °F (1965)
Min Temperature 55 °F 48 °F 40 °F (1987)
Degree Days  
Heating Degree Days 8    
Growing Degree Days 7 (Base 50)    
Moisture  
Dew Point 48 °F    
Average Humidity 71    
Maximum Humidity 80    
Minimum Humidity 64    
Precipitation  
Precipitation 0.00 in - - ()
Sea Level Pressure  
Sea Level Pressure 29.69 in    
Wind  
Wind Speed 16 mph (SSW)    
Max Wind Speed 21 mph    
Max Gust Speed 29 mph    
Visibility 10 miles    
Events Rain    
Averages and records for this station are not official NWS values.
T = Trace of Precipitation, MM = Missing Value Source: NWS Daily Summary

Daily Weather History Graph

Daily Weather History Graph

Search for Another Location

Airport:

Trip Planner

Search our weather history database for the weather conditions in past years. The results will help you decide how hot, cold, wet, or windy it might be!

Date:

Astronomy

Aug. 23, 2013 Rise Set
Actual Time 5:37 AM AKDT 8:28 PM AKDT
Civil Twilight 4:51 AM AKDT 9:14 PM AKDT
Nautical Twilight 3:47 AM AKDT 10:17 PM AKDT
Astronomical Twilight 2:09 AM AKDT 11:50 PM AKDT
Moon 8:44 PM AKDT (8/23) 9:41 AM AKDT (8/23)
Length of Visible Light 16h 23m
Length of Day
14h 50m
Waning Gibbous, 90% of the Moon is Illuminated
Aug 23
Waning Gibbous
Aug 28
Last Quarter
Sep 5
New
Sep 12
First Quarter
Sep 19
Full

Hourly Weather History & Observations

Time (AKDT) Temp. Dew Point Humidity Pressure Visibility Wind Dir Wind Speed Gust Speed Precip Events Conditions
12:53 AM 57.9 °F 48.9 °F 72% 29.80 in 10.0 mi SSW 16.1 mph - N/A   Overcast
1:53 AM 57.9 °F 48.0 °F 70% 29.79 in 10.0 mi SSW 12.7 mph 23.0 mph N/A   Overcast
2:53 AM 57.0 °F 48.9 °F 74% 29.79 in 10.0 mi South 15.0 mph 24.2 mph N/A   Overcast
3:53 AM 57.0 °F 48.9 °F 74% 29.77 in 10.0 mi SSW 17.3 mph 24.2 mph N/A   Overcast
4:53 AM 57.0 °F 48.9 °F 74% 29.76 in 10.0 mi SSW 17.3 mph 26.5 mph N/A   Overcast
5:53 AM 55.9 °F 50.0 °F 80% 29.75 in 10.0 mi SSW 17.3 mph 26.5 mph N/A   Overcast
6:53 AM 57.0 °F 48.9 °F 74% 29.75 in 10.0 mi SSW 18.4 mph 25.3 mph N/A   Overcast
7:53 AM 57.0 °F 50.0 °F 77% 29.73 in 10.0 mi SSW 19.6 mph 27.6 mph N/A   Overcast
8:53 AM 57.0 °F 50.0 °F 77% 29.73 in 10.0 mi SSW 19.6 mph 28.8 mph N/A   Overcast
9:53 AM 57.9 °F 48.9 °F 72% 29.71 in 10.0 mi SSW 20.7 mph 26.5 mph N/A   Overcast
10:53 AM 57.9 °F 48.9 °F 72% 29.71 in 10.0 mi SSW 18.4 mph - N/A   Overcast
11:53 AM 59.0 °F 48.9 °F 69% 29.71 in 10.0 mi SSW 17.3 mph 26.5 mph N/A   Overcast
12:53 PM 59.0 °F 48.0 °F 67% 29.70 in 10.0 mi SSW 19.6 mph 27.6 mph N/A   Overcast
1:53 PM 59.0 °F 48.0 °F 67% 29.69 in 10.0 mi SSW 17.3 mph - N/A   Overcast
2:53 PM 59.0 °F 48.0 °F 67% 29.68 in 10.0 mi SSW 19.6 mph 26.5 mph N/A   Overcast
3:53 PM 59.0 °F 48.0 °F 67% 29.67 in 10.0 mi SSW 16.1 mph - 0.00 in Rain Light Rain
4:53 PM 59.0 °F 46.9 °F 64% 29.65 in 10.0 mi SSW 13.8 mph - 0.00 in   Overcast
5:53 PM 59.0 °F 48.0 °F 67% 29.63 in 10.0 mi SSW 20.7 mph - N/A   Overcast
6:53 PM 59.0 °F 46.9 °F 64% 29.61 in 10.0 mi SSW 16.1 mph - N/A   Overcast
7:53 PM 59.0 °F 46.9 °F 64% 29.60 in 10.0 mi SSW 15.0 mph - N/A   Overcast
8:53 PM 59.0 °F 46.9 °F 64% 29.60 in 10.0 mi WSW 4.6 mph - N/A   Overcast
9:53 PM 55.9 °F 48.0 °F 75% 29.60 in 10.0 mi NNE 3.5 mph - N/A   Overcast
10:53 PM 55.0 °F 48.9 °F 80% 29.60 in 10.0 mi Calm Calm - 0.00 in   Overcast
11:53 PM 57.0 °F 48.9 °F 74% 29.60 in 10.0 mi Variable 5.8 mph - 0.00 in Rain Light Rain